STARLINK-34599

Last updated on Tue Aug 26 2025 00:02:05 GMT+0000 (Coordinated Universal Time)

1 64919U 25157R 25237.58336806 .00006229 00000+0 16555-3 0 9990 2 64919 53.1599 187.3808 0001576 116.0176 345.8670 15.39627356 6038
UTC large
Height (km)
Speed (km/s)
/
Latitude / Longitude
Inclination (degrees)
Orbital Period (minutes)
Azimuth
Elevation
Range (km)
Doppler Factor

Next 0 passes for location: London (51.5072 / 0.1276)

Sorry there are no passes over London.
STARLINK-34599